User: anonymous   Login
Location: ?
(35.4064°N, 139.3593°E)
Time: 09:50:17
(UTC+00:00)
Language:

Cosmos 1484 Rocket - Orbit

View from above orbital plane
View from above orbital plane
View from above satellite
View from above satellite

Ground track
Ground track

The orbit data is extracted from the following two-line orbital elements,

1 14208U 83075B   24164.91186641  .00007525  00000-0  33316-3 0  9999
2 14208  97.5687 144.1833 0029610 316.0134  43.8745 15.21552862233083
Epoch (UTC): 12 June 2024 21:53:05
Eccentricity: 0.0029610
inclination: 97.5687°
perigee height: 481 km
apogee height: 521 km
right ascension of ascending node: 144.1833°
argument of perigee: 316.0134°
revolutions per day: 15.21552862
mean anomaly at epoch: 43.8745°
orbit number at epoch: 23308

The dashed part of the orbit path shows where the satellite is in the earth's shadow,  

DLR